コルレヴィッチ彗星

203P/Korlevic (2020)

English version
Home page
Updated on May 31, 2021

---------------------------------------------------------------------

・ プロフィール

・ 写真集

・ 軌道要素

Epoch 2020 Mar. 12.0 TT = JDT 2458920.5
T 2020 Mar. 5.04474 TT                                  Rudenko
q   3.1997776            (2000.0)            P               Q
n   0.09762996     Peri.  154.87776     +0.08267467     -0.99538923
a   4.6710441      Node   290.34911     +0.90535821     +0.09541405
e   0.3149759      Incl.    2.97328     +0.41652301     -0.00982039
P  10.1
From 1126 observations 2000 Feb. 22-2021 Mar. 12, mean residual 0".8.
     Nongravitational parameters A1 = +7.28, A2 = +2.4135.

・ 星図

・ 光度変化

        m1 = 3.5 + 5 logΔ + 24.0 log r(t - 40)

---------------------------------------------------------------------

軌道要素はM.P.E.C. 2021-F20に掲載されたものです。
星図はステラナビゲータ Ver.10 (アストロアーツ) で作成したものです。
光度グラフはComet for Windowsで作成したものです。

---------------------------------------------------------------------

Copyright(C) Seiichi Yoshida (comet@aerith.net). All rights reserved.